Regional Weather Roundup
Issued by NWS Jackson, KY

Home | Current Version | Previous Version | Graphics & Text | Print | Product List | Glossary On
Versions: 1 2 3 4 5 6 7 8 9 10 11 12 13 14 15 16 17 18 19 20 21 22 23 24 25 26 27 28
000
ASUS43 KJKL 262210
RWRJKL

EAST KENTUCKY HOURLY WEATHER ROUNDUP
NATIONAL WEATHER SERVICE JACKSON KY
600 PM EDT MON SEP 26 2016

NOTE: "FAIR" INDICATES FEW OR NO CLOUDS BELOW 12,000 FEET WITH
NO SIGNIFICANT WEATHER AND/OR OBSTRUCTIONS TO VISIBILITY.

* THESE REPORTS ARE NOT UNDER NWS QUALITY CONTROL AND MAY NOT
  REPORT WEATHER SUCH AS PRECIPITATION AND FOG.

KYZ079-080-083-085-087-088-110-112-115-119-120-262300
...EASTERN KENTUCKY...

CITY           SKY/WX    TMP DP  RH WIND       PRES   REMARKS
JACKSON        PTSUNNY   70  62  76 VRB7      30.02S
LONDON         CLOUDY    74  61  63 W7        30.03S
SOMERSET*      CLOUDY    68  61  77 N6        30.05S
MONTICELLO*    CLOUDY    70  64  81 NW8       30.06S
WILLIAMSBURG*  CLOUDY    72  66  83 NW5       30.03S
MIDDLESBORO*   MOSUNNY   78  65  63 NW5       30.02S
HARLAN APT*    CLOUDY    77  63  61 SW6       30.02F
PIKE CO APT*     N/A     76  65  68 W7        30.00F
BIG SANDY APT* CLOUDY    75  63  66 NW6       30.00S
MOREHEAD APT*  CLOUDY    64  57  77 W5        30.05S
ASHLAND*       CLOUDY    70  63  78 NW6       29.99S
$$

KYZ035-036-041-042-044-050-067-078-099-262300
...CENTRAL KENTUCKY...

CITY           SKY/WX    TMP DP  RH WIND       PRES   REMARKS
MT STERLING*   CLOUDY    64  59  82 NW5       30.07R
FLEMING/MASON* CLOUDY    63  54  73 W10       30.05S
DANVILLE*      CLOUDY    64  55  72 NW6       30.08R
LEXINGTON      CLOUDY    65  54  67 NW6       30.06R
FRANKFORT      CLOUDY    67  52  58 NW6       30.04S
LOUISVILLE     CLOUDY    69  50  50 W8        30.05F
LEBANON*         N/A     64  57  77 W6        30.07S
GLASGOW*       CLOUDY    65  58  75 NW5       30.07F
BOWLING GREEN  CLOUDY    68  56  65 NW6       30.07F
$$

KYZ091>093-OHZ055-061-077-WVZ005-015-034-035-042-262300
...SOUTHERN OHIO/WEST VIRGINIA...

CITY           SKY/WX    TMP DP  RH WIND       PRES   REMARKS
COVINGTON      CLOUDY    65  50  58 W8        30.03S
COLUMBUS       CLOUDY    65  49  56 W13       29.98R
DAYTON         PTSUNNY   67  46  47 W12       30.01S
WILMINGTON     PTSUNNY   64  48  56 W12       30.01S
HUNTINGTON     CLOUDY    70  60  70 NW13      29.99S
CHARLESTON     CLOUDY    75  59  57 NW8       29.97S
PINEVILLE*     MOSUNNY   70  65  84 MISG      30.06F
BECKLEY        MOSUNNY   68  65  90 VRB3      30.04S
BLUEFIELD      CLOUDY    69  62  78 W7        30.08R
LOGAN CO APT*  CLOUDY    73  70  88 CALM      29.99S
$$

VAZ002-007-008-TNZ017-027-036-066-071-262300
...SOUTHWEST VIRGINIA/EAST TENNESSEE...

CITY           SKY/WX    TMP DP  RH WIND       PRES   REMARKS
WISE*          CLOUDY    70  66  88 SW6       30.09R
JONESVILLE*      N/A     77  66  69 W5        30.04S
ABINGDON*      DRIZZLE   71  65  81 S5        30.07R
BRISTOL        TSTM      70  67  90 SW15      30.05R
MORRISTOWN*    PTCLDY    70  68  94 S8        30.02S
SEVIERVILLE*   PTCLDY    72  64  78 SW5       30.03S
KNOXVILLE      CLOUDY    73  67  81 S9        30.02S
OAK RIDGE      PTSUNNY   77  68  73 S8        30.04R
CROSSVILLE     CLOUDY    74  62  66 CALM      30.06F
NASHVILLE      CLOUDY    66  61  84 NW8       30.07R
$$

...KEY TO REMARKS...
VSB - VISIBILITY IN MILES
WCI - WIND CHILL INDEX
HX  - HEAT INDEX

$$




USA.gov is the U.S. government's official web portal to all federal, state and local government web resources and services.